Location: Chefe Valiua
(16.5342°S, 37.2214°E)
Time: 01:40:29
(UTC+00:00)

GPS 2-04 Rocket1 - Pass Details

Date: 19 January 2021
Orbit: 417 x 542 km, 35.6° (Epoch: 07 March)

Event Time Altitude Azimuth Distance (km) Brightness Sun altitude
Rises 16:39:56 0° 219° (SW) 2,363 7.3 -7.3°
Reaches altitude 10° 16:42:31 10° 199° (SSW) 1,497 5.7 -7.9°
Maximum altitude 16:44:56 18° 153° (SSE) 1,101 4.3 -8.4°
Drops below altitude 10° 16:47:23 10° 107° (ESE) 1,505 4.6 -8.9°
Enters shadow 16:47:55 - 101° (ESE) 1,664 4.8 -9.0°
